Regional Weather Roundup
Issued by NWS

Home | Current Version | Previous Version | Graphics & Text | Print | Product List | Glossary On
Versions: 1 2 3 4 5 6 7 8 9 10 11 12 13 14 15 16 17 18 19 20 21 22 23 24 25 26 27
000
ASUS45 KSLC 262210
RWRUT

UTAH REGIONAL WEATHER ROUNDUP
NATIONAL WEATHER SERVICE SALT LAKE CITY UT
400 PM MDT THU MAY 26 2016

UTZ001>011-023>025-262300-

NORTHERN UTAH

CITY           SKY/WX    TMP DP  RH WIND       PRES   REMARKS
BRIGHAM CITY     N/A     67  32  27 NE5       29.94F
DUGWAY         MOSUNNY   71  35  26 NW12G22   29.96F
HILL AFB       MOSUNNY   67  38  34 NW13      29.95F
LOGAN          MOSUNNY   68  41  37 N8        29.95F
OGDEN          SUNNY     68  37  32 NW14      29.94F
PROVO AIRPORT  PTSUNNY   70  37  30 NW15      29.93F
SALT LAKE CITY PTSUNNY   70  36  28 N9G20     29.94F
VERNAL         CLOUDY    65  32  29 NE10      29.91F
WENDOVER       CLOUDY    70  34  26 W9        29.97F
HEBER CITY     CLOUDY    55  39  54 E8        29.97S
WEST JORDAN    SUNNY     66  37  34 NW15      29.96F

$$

UTZ012>022-026-027-262300-

SOUTHERN/CENTRAL UTAH

CITY           SKY/WX    TMP DP  RH WIND       PRES   REMARKS
BLANDING       PTSUNNY   67  24  20 SW16G23   29.96S
BRYCE CANYON   CLOUDY    51  34  52 NE10      30.08R
CEDAR CITY     CLOUDY    58  37  45 E7        30.01S
DELTA          PTSUNNY   70  30  23 W12G21    29.94F
HANKSVILLE     CLOUDY    68  32  26 NW25G35   29.90S
MILFORD        PTSUNNY   69  32  25 NE13G21   29.95F
MOAB/CYNLANDS  CLOUDY    73  20  13 NW12      29.82S
PRICE          LGT RAIN  53  31  42 VRB6      30.01R
ST GEORGE      CLOUDY    72  36  26 NE17G25   29.94R
KANAB          CLOUDY    63  34  34 NW9       30.02F

$$

REGIONAL REPORTS     COLORADO/ARIZONA

CITY           SKY/WX    TMP DP  RH WIND       PRES   REMARKS
CRAIG, CO      CLOUDY    66  32  28 NW8       29.89F
GRAND JUNCTION CLOUDY    69  27  20 SW22G30   29.83S
RIFLE          CLOUDY    72  29  20 N10       29.83F
MONTROSE       CLOUDY    61  32  33 S10G21    29.93F
CORTEZ         CLOUDY    55  30  38 NE21G35   29.94R
PAGE, AZ       CLOUDY    67  35  30 N18G30    29.94R
GRAND CANYON   CLOUDY    57  28  33 NE12G18   30.05F
KINGMAN        MOSUNNY   76  27  16 MISG      29.94F
FLAGSTAFF      CLOUDY    57  21  24 VRB3G22   30.04F

$$

REGIONAL REPORTS    NEVADA/IDAHO/WYOMING

CITY           SKY/WX    TMP DP  RH WIND       PRES   REMARKS
LAS VEGAS, NV  MOSUNNY   82  28  14 W10       29.85F
ELY            PTSUNNY   58  34  40 N17G24    30.06F
ELKO           CLOUDY    59  41  51 S6        30.05F
POCATELLO, ID  CLOUDY    67  35  30 W10       29.97F
BURLEY         MOSUNNY   68  40  35 W12       29.96F
EVANSTON, WY   CLOUDY    56  33  42 VRB6      30.02F
ROCK SPRINGS   PTSUNNY   60  29  30 NW15      29.95F
KEMMERER         N/A     52  32  46 SW9       30.02S

$$




USA.gov is the U.S. government's official web portal to all federal, state and local government web resources and services.